CAPE
0 0 0 0 0 0 0 0 0 255 851 1171 892 991 922 951 898 674 1 0 0 0 0 0 0 2 4 2 0 0 1 10 21 39 34 32 19 13 83 145 293 448 592 871 1156 1328 1474 1308 1188
0 0 0 0 0 0 0 0 0 796 1162 869 642 954 999 633 9 0 0 0 0 0 0 2 3 1 2 0 0 0 0 0 0 0 0 0 0 0 0 0 0 0 28 65 112 144 166 221 340
0 0 0 0 0 0 0 0 215 951 697 841 434 339 553 74 0 0 0 0 0 0 0 1 0 0 0 0 0 0 0 0 0 0 0 0 0 0 0 0 0 0 0 0 0 0 0 0 0
0 0 0 0 0 0 0 1 312 155 111 256 583 182 0 0 0 0 0 0 0 0 0 0 0 0 0 0 0 0 0 0 0 0 0 0 0 0 0 0 0 0 0 0 0 0 0 0 0
0 0 0 0 0 0 0 96 108 219 408 473 350 47 0 0 0 0 0 0 0 0 0 0 0 0 0 0 0 0 0 0 0 0 0 0 0 0 0 0 0 0 0 0 0 0 0 0 0
0 0 0 0 0 0 0 168 8 1 2 7 0 0 0 0 0 0 0 0 0 0 0 0 0 0 0 0 0 0 0 0 0 0 0 0 0 0 0 0 0 0 0 0 0 0 0 0 0
0 0 0 0 0 0 0 139 0 0 0 0 0 2 0 0 0 0 0 0 0 0 0 0 0 0 0 0 0 0 0 0 0 0 0 0 0 0 0 0 0 0 0 0 0 0 0 0 0
0 0 0 0 0 0 0 55 0 0 0 0 0 0 0 0 0 0 0 0 0 0 0 0 0 0 0 0 0 0 0 0 0 0 0 0 0 0 0 0 0 0 0 0 0 0 0 0 0
0 0 0 0 0 0 0 0 0 0 0 0 0 0 0 0 0 0 0 0 0 0 0 0 0 0 0 0 0 0 0 0 0 0 0 0 0 0 0 0 0 0 0 0 0 0 0 0 0
0 0 0 0 0 0 0 0 0 0 0 0 0 0 0 0 0 0 0 0 0 0 0 0 0 0 0 0 0 0 0 0 0 0 0 0 0 0 0 0 0 0 0 0 0 0 0 0 0
0 0 0 0 0 0 0 0 0 0 0 0 0 0 0 0 0 0 0 0 0 0 0 0 0 0 0 0 0 0 0 0 0 0 0 0 0 0 0 0 0 0 0 0 0 0 0 0 0
0 0 0 0 0 0 0 0 0 0 0 0 0 0 0 0 0 0 0 0 0 0 0 0 0 0 0 0 0 0 0 0 0 0 0 0 0 0 0 0 0 0 0 0 0 0 0 0 0
0 0 0 0 0 0 0 0 0 0 0 0 0 0 0 0 0 0 0 0 0 0 0 0 0 0 0 0 0 0 0 0 0 0 0 0 0 0 0 0 0 0 0 0 0 0 0 0 0
0 0 0 0 0 0 0 0 0 0 0 0 0 0 0 0 0 0 0 0 0 0 0 0 0 0 0 0 0 0 0 0 0 0 0 0 0 0 0 0 0 0 0 0 0 0 0 0 0
0 0 0 0 0 0 0 0 0 0 0 0 0 0 0 0 0 0 0 0 0 0 0 0 0 0 0 0 0 0 0 0 0 0 0 0 0 0 0 0 0 0 0 0 0 0 0 0 0
0 0 0 0 0 0 0 0 0 0 0 0 0 0 0 0 0 0 0 0 0 0 0 0 0 0 0 0 0 0 0 0 0 0 0 0 0 0 0 0 0 0 0 0 0 0 0 0 0
0 0 0 0 0 0 0 0 0 0 0 0 0 0 0 0 0 0 0 0 0 0 0 0 0 0 0 0 0 0 0 0 0 0 0 0 0 0 0 0 0 0 0 0 0 0 0 0 0
0 0 0 0 0 0 0 0 0 0 0 0 0 0 0 0 0 0 0 0 0 0 0 0 0 0 0 0 0 0 0 0 0 0 0 0 0 0 0 0 0 0 0 0 0 0 0 0 0
0 0 0 0 0 0 0 0 0 0 0 0 0 0 0 0 0 0 0 0 0 0 0 0 0 0 0 0 0 0 0 0 0 0 0 0 0 0 0 0 0 0 0 0 0 0 0 0 1
0 0 0 0 0 0 0 0 0 0 0 0 0 0 0 0 0 0 0 0 0 0 0 0 0 0 0 0 0 0 0 0 0 0 0 0 0 0 0 0 0 0 0 0 0 0 0 0 1
0 0 0 0 0 0 0 0 0 0 0 0 0 0 0 0 0 0 0 0 0 0 0 0 0 0 0 0 0 0 0 0 0 0 0 0 0 0 0 0 0 0 0 0 0 0 0 0 0
0 0 0 0 0 0 0 0 0 0 0 0 0 0 0 0 0 0 0 0 0 0 0 0 0 0 0 0 0 0 0 0 0 0 0 0 0 0 0 0 0 0 0 0 0 0 1 0 0
0 0 0 0 0 0 0 0 0 0 0 0 0 0 0 0 0 0 0 0 0 0 0 0 0 0 0 0 0 0 0 0 0 0 0 0 0 0 0 0 0 0 0 0 0 0 0 0 0
0 0 0 0 0 0 0 0 0 0 0 0 0 0 0 0 0 0 0 0 0 0 0 0 0 0 0 0 0 0 0 0 0 0 0 0 0 0 0 0 0 0 0 0 0 0 1 1 1
0 0 0 0 0 0 0 0 0 0 0 0 0 0 0 0 0 0 0 0 0 0 0 0 0 0 0 0 0 0 0 0 0 0 0 0 0 0 0 0 0 0 0 0 0 0 0 0 0
0 0 0 0 0 1 0 0 0 0 0 0 0 0 0 0 0 0 0 0 0 0 0 0 0 0 0 0 0 0 0 0 0 0 0 0 0 0 0 0 0 0 0 0 0 0 0 0 0
0 2 1 9 0 7 0 0 0 0 0 0 0 0 0 0 0 0 0 0 0 0 0 0 0 0 0 0 0 0 0 0 0 0 0 0 0 0 0 0 0 0 0 0 0 0 0 0 0
0 2 2 19 3 10 3 1 0 0 0 0 0 0 0 0 0 0 0 0 0 0 0 0 0 0 0 0 0 0 0 0 0 0 0 0 0 0 0 0 0 0 0 0 0 0 0 0 0
0 0 1 0 7 13 4 0 0 0 0 0 0 0 0 0 0 0 0 0 0 0 0 0 0 0 0 0 0 0 0 0 0 0 0 0 0 0 0 0 0 0 0 0 0 0 0 0 0
0 0 2 0 0 4 2 0 0 0 0 0 0 0 0 0 0 0 0 0 0 0 0 0 0 0 0 0 0 0 0 0 0 0 0 0 0 0 0 0 0 0 0 0 0 0 0 0 0
CIN
-0 -0 -0 -0 -0 -0 -0 -0 -0 -99 -43 -77 -70 -50 -33 -119 -82 -67 -0 -0 -0 -0 -0 -0 -0 -0 -0 -0 -0 -0 -0 -318 -351 -291 -256 -321 -275 -175 -184 -210 -163 -93 -69 -27 -4 -0 -0 -1 -2
-0 -0 -0 -0 -0 -0 -0 -0 -0 -21 -90 -133 -171 -106 -82 -179 -211 -0 -0 -0 -0 -0 -0 -0 -0 -0 -0 -0 -0 -0 -0 -0 -0 -0 -0 -0 -0 -0 -0 -0 -0 -0 -251 -218 -205 -171 -151 -128 -84
-0 -0 -0 -0 -0 -0 -0 -0 -70 -81 -136 -98 -158 -202 -179 -374 -0 -0 -0 -0 -0 -0 -0 -0 -0 -0 -0 -0 -0 -0 -0 -0 -0 -0 -0 -0 -0 -0 -0 -0 -0 -0 -0 -0 -0 -0 -0 -0 -0
-0 -0 -0 -0 -0 -0 -0 -152 -68 -150 -200 -192 -117 -166 -0 -0 -0 -0 -0 -0 -0 -0 -0 -0 -0 -0 -0 -0 -0 -0 -0 -0 -0 -0 -0 -0 -0 -0 -0 -0 -0 -0 -0 -0 -0 -0 -0 -0 -0
-0 -0 -0 -0 -0 -0 -0 -62 -95 -61 -81 -121 -120 -115 -0 -0 -0 -0 -0 -0 -0 -0 -0 -0 -0 -0 -0 -0 -0 -0 -0 -0 -0 -0 -0 -0 -0 -0 -0 -0 -0 -0 -0 -0 -0 -0 -0 -0 -0
-0 -0 -0 -0 -0 -0 -0 -73 -115 -14 -84 -96 -0 -0 -0 -0 -0 -0 -0 -0 -0 -0 -0 -0 -0 -0 -0 -0 -0 -0 -0 -0 -0 -0 -0 -0 -0 -0 -0 -0 -0 -0 -0 -0 -0 -0 -0 -0 -0
-0 -0 -0 -0 -0 -0 -0 -96 -0 -0 -0 -0 -0 -134 -0 -0 -0 -0 -0 -0 -0 -0 -0 -0 -0 -0 -0 -0 -0 -0 -0 -0 -0 -0 -0 -0 -0 -0 -0 -0 -0 -0 -0 -0 -0 -0 -0 -0 -0
-0 -0 -0 -0 -0 -0 -0 -114 -0 -0 -0 -0 -0 -0 -0 -0 -0 -0 -0 -0 -0 -0 -0 -0 -0 -0 -0 -0 -0 -0 -0 -0 -0 -0 -0 -0 -0 -0 -0 -0 -0 -0 -0 -0 -0 -0 -0 -0 -0
-0 -0 -0 -0 -0 -0 -0 -0 -0 -0 -0 -0 -0 -0 -0 -0 -0 -0 -0 -0 -0 -0 -0 -0 -0 -0 -0 -0 -0 -0 -0 -0 -0 -0 -0 -0 -0 -0 -0 -0 -0 -0 -0 -0 -0 -0 -0 -0 -0
-0 -0 -0 -0 -0 -0 -0 -0 -0 -0 -0 -0 -0 -0 -0 -0 -0 -0 -0 -0 -0 -0 -0 -0 -0 -0 -0 -0 -0 -0 -0 -0 -0 -0 -0 -0 -0 -0 -0 -0 -0 -0 -0 -0 -0 -0 -0 -0 -0
-0 -0 -0 -0 -0 -0 -0 -0 -0 -0 -0 -0 -0 -0 -0 -0 -0 -0 -0 -0 -0 -0 -0 -0 -0 -0 -0 -0 -0 -0 -0 -0 -0 -0 -0 -0 -0 -0 -0 -0 -0 -0 -0 -0 -0 -0 -0 -0 -0
-0 -0 -0 -0 -0 -0 -0 -0 -0 -0 -0 -0 -0 -0 -0 -0 -0 -0 -0 -0 -0 -0 -0 -0 -0 -0 -0 -0 -0 -0 -0 -0 -0 -0 -0 -0 -0 -0 -0 -0 -0 -0 -0 -0 -0 -0 -0 -0 -0
-0 -0 -0 -0 -0 -0 -0 -0 -0 -0 -0 -0 -0 -0 -0 -0 -0 -0 -0 -0 -0 -0 -0 -0 -0 -0 -0 -0 -0 -0 -0 -0 -0 -0 -0 -0 -0 -0 -0 -0 -0 -0 -0 -0 -0 -0 -0 -0 -0
-0 -0 -0 -0 -0 -0 -0 -0 -0 -0 -0 -0 -0 -0 -0 -0 -0 -0 -0 -0 -0 -0 -0 -0 -0 -0 -0 -0 -0 -0 -0 -0 -0 -0 -0 -0 -0 -0 -0 -0 -0 -0 -0 -0 -0 -0 -0 -0 -0
-0 -0 -0 -0 -0 -0 -0 -0 -0 -0 -0 -0 -0 -0 -0 -0 -0 -0 -0 -0 -0 -0 -0 -0 -0 -0 -0 -0 -0 -0 -0 -0 -0 -0 -0 -0 -0 -0 -0 -0 -0 -0 -0 -0 -0 -0 -0 -0 -0
-0 -0 -0 -0 -0 -0 -0 -0 -0 -0 -0 -0 -0 -0 -0 -0 -0 -0 -0 -0 -0 -0 -0 -0 -0 -0 -0 -0 -0 -0 -0 -0 -0 -0 -0 -0 -0 -0 -0 -0 -0 -0 -0 -0 -0 -0 -0 -0 -0
-0 -0 -0 -0 -0 -0 -0 -0 -0 -0 -0 -0 -0 -0 -0 -0 -0 -0 -0 -0 -0 -0 -0 -0 -0 -0 -0 -0 -0 -0 -0 -0 -0 -0 -0 -0 -0 -0 -0 -0 -0 -0 -0 -0 -0 -0 -0 -0 -0
-0 -0 -0 -0 -0 -0 -0 -0 -0 -0 -0 -0 -0 -0 -0 -0 -0 -0 -0 -0 -0 -0 -0 -0 -0 -0 -0 -0 -0 -0 -0 -0 -0 -0 -0 -0 -0 -0 -0 -0 -0 -0 -0 -0 -0 -0 -0 -0 -0
-0 -0 -0 -0 -0 -0 -0 -0 -0 -0 -0 -0 -0 -0 -0 -0 -0 -0 -0 -0 -0 -0 -0 -0 -0 -0 -0 -0 -0 -0 -0 -0 -0 -0 -0 -0 -0 -0 -0 -0 -0 -0 -0 -0 -0 -0 -0 -0 -1
-0 -0 -0 -0 -0 -0 -0 -0 -0 -0 -0 -0 -0 -0 -0 -0 -0 -0 -0 -0 -0 -0 -0 -0 -0 -0 -0 -0 -0 -0 -0 -0 -0 -0 -0 -0 -0 -0 -0 -0 -0 -0 -0 -0 -0 -0 -0 -0 -0
-0 -0 -0 -0 -0 -0 -0 -0 -0 -0 -0 -0 -0 -0 -0 -0 -0 -0 -0 -0 -0 -0 -0 -0 -0 -0 -0 -0 -0 -0 -0 -0 -0 -0 -0 -0 -0 -0 -0 -0 -0 -0 -0 -0 -0 -0 -0 -0 -0
-0 -0 -0 -0 -0 -0 -0 -0 -0 -0 -0 -0 -0 -0 -0 -0 -0 -0 -0 -0 -0 -0 -0 -0 -0 -0 -0 -0 -0 -0 -0 -0 -0 -0 -0 -0 -0 -0 -0 -0 -0 -0 -0 -0 -0 -0 -0 -1 -0
-0 -0 -0 -0 -0 -0 -0 -0 -0 -0 -0 -0 -0 -0 -0 -0 -0 -0 -0 -0 -0 -0 -0 -0 -0 -0 -0 -0 -0 -0 -0 -0 -0 -0 -0 -0 -0 -0 -0 -0 -0 -0 -0 -0 -1 -1 -0 -1 -1
-0 -0 -0 -0 -0 -0 -0 -0 -0 -0 -0 -0 -0 -0 -0 -0 -0 -0 -0 -0 -0 -0 -0 -0 -0 -0 -0 -0 -0 -0 -0 -0 -0 -0 -0 -0 -0 -0 -0 -0 -0 -0 -0 -0 -0 -0 -0 -0 -0
-0 -0 -0 -0 -0 -0 -0 -0 -0 -0 -0 -0 -0 -0 -0 -0 -0 -0 -0 -0 -0 -0 -0 -0 -0 -0 -0 -0 -0 -0 -0 -0 -0 -0 -0 -0 -0 -0 -0 -0 -0 -0 -0 -0 -0 -0 -0 -0 -0
-0 -0 -0 -0 -0 -6 -0 -0 -0 -0 -0 -0 -0 -0 -0 -0 -0 -0 -0 -0 -0 -0 -0 -0 -0 -0 -0 -0 -0 -0 -0 -0 -0 -0 -0 -0 -0 -0 -0 -0 -0 -0 -0 -0 -0 -0 -0 -0 -0
-0 -3 -0 -3 -0 -2 -0 -0 -0 -0 -0 -0 -0 -0 -0 -0 -0 -0 -0 -0 -0 -0 -0 -0 -0 -0 -0 -0 -0 -0 -0 -0 -0 -0 -0 -0 -0 -0 -0 -0 -0 -0 -0 -0 -0 -0 -0 -0 -0
-0 -5 -2 -1 -0 -2 -3 -2 -0 -0 -0 -0 -0 -0 -0 -0 -0 -0 -0 -0 -0 -0 -0 -0 -0 -0 -0 -0 -0 -0 -0 -0 -0 -0 -0 -0 -0 -0 -0 -0 -0 -0 -0 -0 -0 -0 -0 -0 -0
-0 -0 -1 -1 -5 -2 -3 -0 -0 -0 -0 -0 -0 -0 -0 -0 -0 -0 -0 -0 -0 -0 -0 -0 -0 -0 -0 -0 -0 -0 -0 -0 -0 -0 -0 -0 -0 -0 -0 -0 -0 -0 -0 -0 -0 -0 -0 -0 -0
-0 -0 -9 -0 -0 -6 -3 -0 -0 -0 -0 -0 -0 -0 -0 -0 -0 -0 -0 -0 -0 -0 -0 -0 -0 -0 -0 -0 -0 -0 -0 -0 -0 -0 -0 -0 -0 -0 -0 -0 -0 -0 -0 -0 -0 -0 -0 -0 -0
Wind_Speed
16 14 12 12 14 14 16 16 16 12 11 12 8 9 5 14 11 13 10 8 8 7 8 10 11 12 13 13 13 14 14 15 16 17 18 19 20 20 21 22 22 22 23 23 23 24 24 24 23
13 13 12 15 15 16 16 14 11 12 11 9 8 8 7 10 12 10 9 8 8 8 8 10 11 12 13 13 13 14 15 16 16 17 18 19 20 21 23 24 24 24 24 24 24 24 26 26 26
12 11 13 14 15 17 18 12 9 9 8 7 8 11 10 12 10 9 8 8 8 8 9 10 11 12 13 13 14 14 15 16 17 18 19 20 21 22 23 24 26 26 26 26 26 27 27 27 27
13 12 14 11 15 15 15 13 7 6 8 7 7 10 11 14 11 8 7 8 8 9 9 10 11 12 13 13 14 14 16 17 18 19 20 21 22 24 25 25 26 28 28 28 28 28 28 28 29
12 14 11 12 13 14 14 11 6 5 6 4 7 10 12 12 11 9 8 8 8 9 9 10 11 12 12 13 14 15 17 17 19 20 21 23 24 25 26 27 28 28 29 30 30 30 30 30 30
9 13 12 13 11 12 11 6 5 5 5 5 9 8 12 10 10 10 9 8 8 9 9 10 10 11 12 13 15 16 17 18 20 22 23 24 25 26 27 28 29 30 31 32 32 32 32 32 32
9 10 14 17 13 10 9 4 4 4 4 4 7 10 9 7 9 10 10 9 9 9 9 9 9 11 13 14 15 16 18 20 22 23 24 25 27 28 29 30 31 31 32 33 33 34 34 34 34
13 13 14 13 10 11 7 6 3 3 5 8 9 9 9 5 8 9 10 10 9 9 9 9 10 11 13 14 16 18 20 21 23 25 26 27 27 29 30 31 32 32 33 34 35 35 36 36 36
13 11 13 13 11 11 4 3 3 10 5 7 9 12 12 8 8 8 8 8 8 9 9 9 10 11 13 14 16 18 20 22 24 25 27 27 27 29 30 30 32 33 35 34 36 36 37 37 34
7 12 15 16 13 13 3 3 2 4 2 5 6 11 6 8 6 6 6 6 7 8 9 10 11 12 13 15 17 19 20 22 23 25 26 27 28 29 30 30 32 33 35 34 36 36 35 34 35
11 13 14 12 12 14 5 3 3 3 3 5 3 2 4 6 6 5 5 5 6 7 9 10 12 13 14 16 17 18 20 21 23 26 27 27 27 28 29 30 32 33 34 34 36 35 35 36 36
10 12 14 13 12 14 11 6 7 1 15 17 11 2 5 7 6 5 4 5 6 7 9 10 12 13 15 15 17 18 20 21 23 25 28 28 28 30 31 31 32 33 34 35 35 35 36 36 36
6 8 11 12 14 16 15 14 13 10 16 15 6 1 4 5 3 2 3 4 6 7 9 10 12 14 15 16 17 19 21 22 23 25 28 29 29 31 31 32 33 34 35 35 36 36 37 37 37
10 7 9 13 15 18 19 17 17 15 14 11 6 2 2 3 2 0 1 3 5 7 9 11 13 14 15 17 18 19 20 22 24 25 28 30 30 32 32 32 33 34 35 36 36 37 38 38 38
13 12 9 12 15 16 17 21 21 19 14 12 9 5 3 3 2 2 1 3 5 7 8 10 12 13 15 16 18 19 21 22 24 25 27 29 31 32 32 32 34 35 35 36 37 37 37 37 37
14 17 15 12 11 14 12 27 16 13 11 11 9 7 5 4 4 3 3 4 5 6 8 10 11 13 14 16 17 19 21 22 24 26 28 31 32 32 32 32 33 36 35 35 36 38 39 39 39
12 15 14 17 14 16 13 22 16 13 12 10 8 6 6 6 5 5 4 5 6 7 8 10 11 12 13 14 16 18 20 22 24 26 28 30 31 32 31 31 33 35 34 35 36 37 38 40 40
18 15 20 20 17 18 20 23 18 16 13 11 8 8 8 8 8 6 4 4 5 7 9 10 12 13 14 15 16 19 21 23 24 26 28 30 30 31 31 31 33 34 34 35 36 38 38 38 40
22 22 22 23 19 24 23 28 24 18 15 14 11 10 10 10 8 6 5 5 6 7 8 9 11 13 14 16 18 20 22 24 26 27 28 29 30 31 31 31 32 33 33 34 35 36 38 37 39
23 25 23 27 24 25 29 31 26 23 17 16 14 13 13 11 10 9 8 7 7 7 8 9 11 13 15 16 18 21 22 23 25 26 26 28 29 30 30 31 32 32 33 33 34 35 36 35 37
24 27 27 27 27 27 33 38 31 25 21 19 17 16 15 14 13 11 10 9 8 8 8 9 10 12 14 16 17 19 21 23 23 24 25 27 28 29 29 30 31 32 31 32 33 33 34 35 34
32 25 25 29 30 34 23 45 28 21 20 19 17 16 14 14 13 12 11 9 8 8 7 8 9 11 14 16 18 20 22 23 24 25 26 26 28 29 30 30 30 30 29 30 31 31 32 32 33
33 25 26 28 31 35 30 34 34 19 23 19 18 17 16 14 14 13 11 10 8 7 7 6 8 10 14 17 18 19 21 22 24 25 26 26 26 27 29 29 28 28 28 29 30 30 30 30 30
24 24 25 25 27 37 30 28 45 30 26 22 18 15 15 14 13 12 11 9 8 6 5 5 6 11 14 16 17 18 20 23 25 26 26 26 25 25 27 27 27 27 28 28 28 29 29 29 28
17 22 32 34 33 39 26 29 33 28 24 22 20 13 13 12 12 12 12 10 8 7 5 5 7 11 12 13 15 18 21 23 25 24 24 24 24 24 26 26 27 27 27 26 27 26 27 28 28
24 24 33 41 40 41 25 37 34 27 22 20 18 15 12 11 11 11 11 10 8 7 5 5 6 8 10 12 15 18 21 23 23 22 22 22 22 23 24 25 25 26 26 26 26 25 26 27 27
28 33 29 40 44 45 44 39 35 28 27 22 19 16 14 12 11 11 10 10 8 7 5 3 3 6 8 11 14 17 19 20 20 20 20 20 21 22 23 24 25 25 26 26 25 26 27 27 27
29 26 31 31 43 47 41 39 37 32 28 22 19 17 14 12 10 10 10 9 8 6 4 2 3 6 8 11 13 15 16 17 18 18 19 20 20 21 22 23 24 25 25 26 25 26 27 26 26
29 33 31 35 37 46 48 46 35 32 27 21 19 17 12 10 9 9 9 9 7 6 4 3 4 6 8 10 12 14 15 16 16 16 18 19 20 20 21 22 23 24 24 25 26 26 27 26 26
33 36 35 38 42 40 44 48 28 29 26 21 16 13 12 11 10 8 9 8 7 6 5 4 4 6 7 8 10 12 13 14 15 16 17 18 19 19 20 21 21 23 24 25 25 25 26 26 26
Wind_Direction
350 359 6 356 341 336 327 331 334 345 346 347 11 334 352 326 322 322 340 330 335 339 353 7 14 23 23 19 14 11 12 11 13 9 4 2 359 357 353 351 347 346 343 340 334 326 320 317 320
355 1 360 341 337 328 333 339 344 350 1 28 18 9 353 333 338 355 355 338 339 349 0 16 19 17 19 11 11 11 10 10 8 4 1 359 356 354 351 346 343 340 338 337 333 329 320 314 314
356 356 342 342 334 327 332 349 356 10 32 21 349 345 342 339 353 350 357 358 352 358 9 16 13 14 13 4 5 8 8 4 0 358 357 355 354 352 349 344 338 335 335 333 329 325 320 315 313
348 347 336 336 329 340 339 348 13 21 10 6 6 349 349 336 356 354 12 5 4 1 5 6 2 3 4 1 1 2 1 359 356 355 355 353 351 347 343 340 335 332 330 328 327 325 321 318 315
346 336 335 331 331 338 344 351 49 35 17 28 1 345 341 356 20 30 19 19 15 10 8 354 353 356 359 2 1 358 355 353 351 350 349 348 345 341 338 336 334 332 329 326 323 323 319 317 315
352 339 333 326 331 337 348 16 38 49 26 1 336 354 335 39 37 32 25 16 17 16 7 8 356 358 359 359 355 353 353 352 350 347 345 344 341 337 335 334 332 328 326 324 321 319 316 314 312
341 337 328 325 332 336 348 53 49 39 17 355 347 335 355 37 48 51 43 35 31 24 18 9 5 9 3 355 352 350 347 345 344 343 341 340 338 336 333 331 330 327 326 323 321 318 315 313 310
340 337 331 328 332 333 349 113 29 33 354 335 328 340 346 86 76 65 54 47 38 27 18 14 6 359 354 356 352 349 344 342 340 339 337 336 337 335 333 331 329 327 325 323 320 317 314 311 308
337 335 327 326 325 325 33 75 12 315 2 326 323 331 345 94 88 75 66 55 45 31 26 21 13 1 356 351 346 344 342 340 338 338 338 338 336 334 333 333 330 328 326 324 322 320 317 314 312
347 331 326 326 328 316 78 71 43 355 7 327 328 336 42 100 104 88 80 62 44 32 24 18 11 2 356 350 346 344 342 343 342 341 339 339 338 336 334 333 331 329 327 326 324 323 321 319 316
343 329 331 335 328 311 343 21 39 348 309 312 323 21 96 117 120 105 81 58 43 34 22 15 7 358 354 351 351 348 347 345 345 345 343 342 341 339 337 335 334 332 331 329 326 324 322 318 315
340 334 323 326 325 308 311 338 324 149 305 300 313 99 122 136 133 116 85 56 43 27 24 17 10 5 359 355 350 350 349 349 348 347 346 344 342 340 338 337 335 334 333 330 328 326 322 319 316
344 346 328 322 310 305 303 300 302 303 301 307 332 99 147 147 128 94 56 30 22 12 10 8 5 360 357 355 355 354 353 352 352 350 348 346 343 341 339 338 337 335 333 331 328 326 323 320 318
346 334 325 312 306 299 291 294 297 297 302 306 310 286 189 176 164 80 20 7 0 359 357 1 359 358 358 358 357 356 355 353 351 349 347 345 343 340 339 339 338 336 333 331 329 326 324 321 319
327 318 314 304 301 300 296 290 287 291 295 295 294 287 248 227 238 254 308 332 344 347 358 358 358 358 357 356 355 354 352 351 349 347 347 345 343 340 338 337 335 335 333 330 329 327 326 323 322
321 313 305 309 304 305 297 290 301 299 290 289 286 284 262 250 252 274 301 326 344 348 345 352 354 355 354 353 351 350 349 348 347 346 344 342 341 340 339 336 335 333 333 333 330 327 324 323 322
309 305 305 308 305 305 288 298 304 306 296 287 279 267 251 251 251 272 286 311 329 338 345 347 350 348 351 352 351 351 351 349 348 348 347 346 345 344 341 339 336 335 335 334 332 330 327 324 322
307 302 301 299 307 296 292 291 303 300 297 290 276 261 248 242 236 242 258 295 320 330 335 339 340 342 343 347 348 347 348 349 350 347 345 345 345 344 342 340 338 337 336 334 332 330 329 325 322
305 302 300 302 305 299 293 292 294 293 285 285 274 256 247 246 235 240 254 281 304 317 324 329 334 337 339 340 340 341 341 343 345 345 346 346 345 344 343 341 340 338 336 334 333 333 330 329 327
297 297 297 297 298 297 296 292 292 290 274 270 263 259 256 251 244 246 255 269 284 299 312 322 330 335 339 341 342 341 342 344 345 347 349 349 349 348 345 344 340 339 337 337 337 337 335 334 333
289 293 297 298 302 299 299 293 289 281 279 277 277 274 266 252 251 248 249 259 275 287 301 315 326 334 338 341 343 344 344 344 345 348 348 348 348 347 348 346 342 342 342 339 339 338 338 335 337
288 295 295 294 297 296 304 294 304 299 285 281 275 273 266 257 254 249 247 254 264 279 297 311 324 334 339 342 340 339 339 342 346 345 346 347 349 350 349 346 347 346 346 344 342 341 339 339 336
291 294 295 297 294 295 290 297 303 299 292 289 281 276 268 258 254 253 245 248 259 274 288 304 322 334 338 338 339 341 344 346 346 344 343 347 351 351 351 351 353 352 351 348 345 342 339 336 336
296 296 299 300 296 289 292 287 294 292 289 294 286 279 272 265 256 248 240 240 250 259 273 292 312 328 336 337 342 343 344 345 342 341 343 349 352 353 356 358 357 355 353 351 349 347 343 336 334
280 290 294 293 290 291 304 291 287 308 312 307 299 285 274 262 250 248 239 235 231 236 244 281 309 324 335 341 343 343 344 342 344 347 350 352 354 357 358 358 356 354 356 358 354 355 348 337 331
279 279 285 289 291 295 303 294 300 308 311 309 309 302 287 271 257 242 227 228 223 222 231 277 306 328 336 340 344 344 344 346 350 353 355 359 2 2 359 357 357 357 356 355 356 358 354 343 334
288 280 288 287 289 290 288 291 300 300 301 302 299 297 287 272 254 239 229 230 221 214 222 246 305 328 332 337 344 346 351 355 356 359 3 6 5 2 360 0 360 1 0 357 358 358 352 344 339
282 296 289 285 288 285 291 293 296 301 301 298 294 292 286 278 259 242 232 224 201 207 205 247 310 325 331 338 342 348 356 1 1 4 5 7 5 2 1 1 3 5 4 1 1 359 354 348 344
287 282 284 289 283 287 290 290 302 305 303 296 291 289 284 276 260 245 227 214 201 199 206 261 305 320 332 340 347 353 356 2 4 7 8 7 5 4 2 3 6 8 5 1 0 0 353 347 341
289 288 286 281 286 284 287 286 301 308 308 303 296 281 290 285 269 246 216 205 205 201 205 251 304 321 331 342 351 355 359 2 7 8 9 9 7 6 4 5 8 10 8 1 2 357 353 348 345